Location: Peterborough
(44.3091°N, 78.3197°W)
Time: 01:19:00
(UTC-04:00)

Vanguard 1 Rocket - Pass Details

Date: 24 March 2023
Orbit: 655 x 4220 km, 34.3° (Epoch: 02 June)

Event Time Altitude Azimuth Distance (km) Brightness Sun altitude
Exits shadow 06:11:34 13° 253° (WSW) 3,466 9.7 -11.1°
Maximum altitude 06:15:53 19° 221° (SW) 2,571 9.2 -10.3°
Drops below altitude 10° 06:20:10 10° 178° (S) 2,668 9.7 -9.6°
Sets 06:23:02 0° 158° (SSE) 3,320 10.4 -9.1°
